Vertical_Velocity
-1 -1 -0 -0 -1 -1 -1 -2 -2 -2 -2 -2 -1 -1 -1 -1 -1 -1 -1 -1 -1 -1 -0 -0 -0 -1 -1 -1 -1 -0 -0 0 0 0 1 1 1 1 1 0 0 -0 -0 -0 -0 -0 -0 -1 -1 -1 -1 -1 -1 -1 -1 -1 -0 -0 -0 -0 -0 -1 -2 -2 -0 2 6 -1 -4 -4 -1 -1 -2 -1 4 4 -1 -6 -6 -5 -2 3 12 13 5 -3 -4 -3 -2 -1 3 6 3 -1 -4 -3 -3 -2 -1 -0 -2 -2 -1
-1 -1 -1 -0 -0 -1 -1 -1 -1 -1 -2 -2 -2 -2 -2 -1 -1 -1 -2 -1 -1 -1 -1 -1 -1 -1 -1 -1 -1 -0 -0 0 1 1 1 1 1 0 0 -0 -0 -0 -0 -0 -0 -0 -0 -0 -0 -0 -0 -1 -0 -0 -1 -0 -0 -0 -0 -0 -0 -0 -1 -2 -2 -3 -3 -3 -2 -1 -3 -1 -1 -0 3 2 2 1 -2 2 6 7 4 2 -2 -5 -3 -3 -2 -1 -0 -1 -2 -3 -3 -3 -3 -2 -2 0 -2 -3 -1
-1 -1 -1 -0 -0 -1 -1 -1 -1 -1 -1 -2 -2 -2 -2 -2 -2 -2 -2 -1 -1 -1 -1 -1 -1 -1 -1 -1 -1 -0 -0 0 1 1 0 0 0 -0 -0 -0 -0 -0 -0 -0 -0 -1 -0 -0 -0 -0 -1 -1 -1 -0 -0 -0 -0 -0 -0 -0 -0 -0 -1 -0 -1 -1 -1 5 5 1 -3 -2 -1 -1 0 -0 4 9 11 9 3 -2 -3 -4 -3 -3 -3 -3 -2 -0 1 0 -0 -0 -1 -1 -2 -2 -2 -0 -2 -5 -3
-1 -1 -0 -0 -0 -1 -1 -1 -1 -1 -1 -1 -1 -2 -2 -2 -2 -2 -2 -1 -1 -1 -1 -1 -1 -1 -1 -1 -1 -0 -0 0 0 0 0 -0 -0 -0 -0 -0 -0 -0 -0 -0 -1 -1 -1 -1 -1 -1 -1 -1 -1 -0 -0 -0 0 0 0 -0 -0 -0 -0 -0 0 -0 -0 0 -3 -5 -2 -2 -2 -2 -1 -0 -1 -1 1 1 2 2 -2 -4 -5 -4 -2 -2 -2 -1 -0 1 1 1 -0 -1 -1 -1 -0 -0 -2 -3 -2
-1 -1 -1 -0 -0 -0 -1 -1 -1 -1 -1 -1 -1 -1 -1 -2 -2 -2 -1 -1 -1 -1 -1 -1 -1 -1 -1 -1 -1 -0 -0 -0 -0 -0 -0 -0 0 0 0 0 -0 -0 -0 -1 -1 -1 -1 -1 -1 -1 -1 -1 -1 -0 -0 -0 -0 0 0 0 1 1 1 1 1 1 -0 -1 -0 -0 -0 -1 -2 -2 -1 1 -1 -3 -3 -2 -1 1 0 1 -0 -1 -1 -1 -1 -1 -2 -1 -0 0 1 -0 -1 -1 -1 -1 -2 -2 -1
-1 -1 -1 -1 -1 -1 -1 -1 -1 -1 -1 -1 -1 -1 -2 -1 -1 -1 -1 -1 -1 -1 -1 -1 -1 -1 -1 -1 -1 -0 -0 -0 -0 -0 -0 0 0 0 -0 -0 -0 -0 -1 -1 -1 -1 -1 -1 -1 -1 -1 -1 -1 -0 -0 -0 -0 0 1 1 1 1 1 1 1 1 1 1 0 0 -1 -1 -1 -1 -2 -0 0 -1 -3 -4 -4 -4 -3 -2 -1 -1 -3 -1 -1 -1 -2 -2 -2 -2 -1 -0 -0 -1 -1 -1 -1 -1 -2
-1 -1 -1 -1 -1 -1 -1 -1 -1 -1 -1 -1 -2 -2 -2 -2 -2 -2 -1 -1 -1 -1 -1 -1 -1 -0 -0 -1 -0 -0 -0 -0 -0 -0 -0 -0 -0 -0 -0 -0 -0 -1 -1 -1 -1 -1 -1 -1 -1 -1 -1 -1 -0 -0 -0 -0 0 0 1 1 1 1 0 1 1 2 2 1 2 1 -1 -1 0 1 -3 -1 1 2 2 -1 -3 -4 -4 -5 -4 -3 -2 -2 -2 -2 -2 -2 -2 -2 -1 -1 -0 -0 -0 -0 -0 -1 -2
-1 -1 -1 -0 -0 -1 -1 -1 -1 -1 -1 -2 -2 -2 -2 -2 -2 -2 -2 -1 -1 -1 -1 -1 -1 -0 -0 -1 -0 -0 -0 0 0 -0 -0 -0 -0 -0 -0 -0 -1 -0 -0 -0 -0 -1 -1 -1 -1 -1 -1 -0 -0 -0 0 0 0 0 0 1 0 -0 -1 -0 0 1 2 1 2 1 0 0 2 3 -0 -2 -1 1 2 1 1 1 -1 -1 -1 -1 -1 -1 -1 -1 -1 -1 -1 -1 -1 -0 0 1 1 1 0 0 -0
-0 -0 -0 -0 -0 -0 -0 -1 -1 -1 -1 -2 -2 -2 -2 -2 -2 -2 -2 -2 -1 -1 -1 -1 -1 -1 -1 -1 -1 -1 -0 -0 0 -0 -0 -0 -0 -0 -0 -0 -0 -0 -0 -0 -0 -0 -0 -0 -0 -0 -0 -0 -0 0 0 0 0 0 0 0 0 -0 -1 -1 -1 -0 1 1 1 1 1 1 1 1 2 -1 -2 -1 -1 1 1 2 3 2 1 1 0 0 0 1 1 1 0 -0 -0 0 0 1 1 1 1 1 0
1 1 1 0 0 0 0 -0 -1 -1 -1 -1 -1 -2 -2 -2 -2 -2 -2 -2 -2 -1 -1 -1 -1 -1 -1 -1 -1 -1 -0 -0 -0 -0 -0 -0 -0 -0 -0 -0 -0 -0 -0 -0 -0 -0 -0 -0 -0 -0 -0 0 0 0 1 1 0 0 0 -0 -0 -0 -0 -0 -1 -1 -0 0 1 1 0 1 1 1 1 1 1 -1 -3 -2 0 1 2 2 1 1 1 1 1 1 1 1 1 1 1 1 1 1 1 1 1 1 1
1 1 1 1 1 1 1 0 -0 -0 -1 -1 -1 -1 -1 -2 -2 -2 -2 -2 -2 -2 -1 -1 -1 -1 -1 -1 -1 -1 -1 -0 -0 -0 -1 -1 -1 -0 -0 -0 -0 -0 -0 -0 -0 -0 -0 -0 -0 0 0 0 0 0 1 1 1 0 0 0 -0 -0 0 0 0 -0 -0 0 1 1 1 0 -0 0 2 2 2 1 -2 -2 -1 -0 0 1 1 2 1 1 1 1 1 1 1 1 1 1 1 1 1 1 1 1 1
0 0 1 1 2 2 1 1 0 0 -0 -0 -1 -1 -1 -1 -1 -1 -1 -1 -1 -1 -1 -1 -1 -1 -1 -1 -1 -1 -1 -1 -0 -0 -0 -1 -1 -1 -0 -0 -0 -0 -0 -0 -0 -0 -0 -0 0 0 0 0 0 0 1 1 1 1 0 0 0 -0 0 0 -0 -0 -0 -0 0 0 0 1 0 -0 0 1 1 0 0 0 0 0 0 0 1 1 1 1 1 1 1 1 0 0 0 -0 0 0 1 1 1 1 1
-0 -0 -0 0 1 1 2 1 1 1 0 0 -0 -0 -0 -0 -1 -1 -1 -1 -1 -1 -1 -1 -1 -1 -1 -1 -1 -1 -2 -1 -1 -0 0 -0 -0 -0 -0 -0 -0 -0 -0 -0 -0 -0 -0 -0 0 0 0 0 0 0 0 1 1 1 1 0 0 -0 -0 -0 -0 -0 -0 -0 -0 -0 -0 0 0 -0 -1 -0 -0 0 1 1 1 1 1 0 0 0 1 1 0 0 -0 -0 -1 -1 -1 -0 -0 0 1 1 1 1 1
-0 -1 -1 -0 -0 -0 0 1 1 1 1 0 0 0 -0 -0 -0 -1 -1 -1 -1 -1 -1 -1 -1 -1 -0 -0 -0 -1 -1 -2 -1 -0 1 0 0 -0 -0 0 0 0 0 0 0 0 0 0 0 0 1 0 0 0 0 0 0 0 0 0 0 -0 -1 -1 -1 -0 0 -0 -0 -1 -1 -0 0 0 -0 -1 -1 0 1 1 1 1 1 1 1 0 1 0 -0 -0 -0 -0 -0 -0 -0 0 1 1 1 1 1 0 0
1 1 0 -0 -0 -0 -0 0 1 1 1 0 0 -0 -0 -0 -0 -0 -1 -1 -1 -1 -0 -0 -0 -0 -0 -0 -0 -0 -1 -2 -2 -1 1 1 1 0 0 0 0 0 1 1 1 1 1 1 1 1 1 1 1 0 0 0 0 0 0 0 0 0 -1 -1 -1 -0 0 0 0 -0 -1 -0 0 0 0 -0 -0 -0 1 1 1 1 1 1 1 1 1 1 0 0 -0 0 0 1 1 1 1 1 1 1 1 1 0
2 2 2 1 1 0 -0 0 0 1 1 1 0 0 -0 -0 -0 -1 -1 -1 -1 -1 -1 -1 -1 -0 -0 -0 -0 -0 -0 -1 -2 -1 -0 0 0 -0 0 0 0 0 0 1 1 1 1 1 1 1 1 1 1 1 0 0 0 0 0 0 0 -0 -1 -1 -0 0 1 1 0 0 0 0 0 -0 -0 -0 -0 -0 -0 1 1 1 1 1 1 1 1 1 1 0 0 1 1 1 1 1 1 1 1 1 1 1 1
1 1 1 1 1 1 1 1 1 1 1 1 1 1 1 0 0 -0 -0 -1 -1 -1 -1 -1 -1 -1 -1 -1 -0 -0 -0 -1 -1 -2 -1 -0 -0 -1 -0 -0 0 0 0 0 0 0 0 1 1 1 1 1 1 1 0 0 0 0 0 0 0 -0 -2 -0 -0 0 1 1 1 1 0 1 0 -1 -1 -1 -0 -0 -0 0 1 1 1 1 1 1 1 1 1 1 1 1 1 1 1 1 1 1 1 1 1 1 1
1 0 0 -0 -0 -0 0 0 0 1 1 1 1 1 1 1 1 0 0 -0 -0 -1 -1 -1 -1 -1 -1 -1 -1 -1 -0 -1 -1 -1 -1 -1 -1 -1 -1 -0 -0 -0 -0 -0 -0 -0 -0 -0 0 0 0 1 1 1 0 0 0 0 0 0 0 -0 -1 -1 -0 -0 1 1 1 1 1 1 0 -0 -1 -1 -1 -0 -0 -0 0 0 1 1 1 1 1 1 1 1 1 1 1 1 0 0 0 1 1 1 1 1 1
-0 -1 -1 -1 -1 -1 -0 -0 -0 0 0 1 1 1 0 0 0 0 0 0 0 -0 -0 -0 -0 -0 0 -0 -0 -0 -0 -0 -0 -1 -1 -1 -0 -1 -1 -0 -0 -0 -0 -0 -0 -0 -0 -0 -0 -0 -0 0 1 1 0 0 -0 -0 0 0 0 -0 -0 -1 -1 -1 0 1 1 2 1 1 -0 -1 -1 -2 -2 -1 -1 -0 -0 0 0 1 1 1 1 0 1 1 1 1 1 1 1 1 1 1 1 1 1 1 2
-1 -1 -1 -1 -1 -1 -1 -1 -0 -0 -0 -0 -0 -0 -0 -0 0 0 0 0 0 0 0 0 1 1 1 1 1 0 0 0 0 0 -0 0 0 -0 -0 -0 0 0 0 0 0 1 1 1 0 0 0 0 1 1 1 0 0 -0 0 0 0 0 0 -1 -1 -1 -0 0 1 1 1 1 1 -0 -1 -2 -2 -1 -1 -1 -0 -0 -0 0 1 1 0 0 0 0 1 1 1 1 1 1 1 1 1 1 1 1 2
0 0 0 -0 -0 -0 -0 -0 -0 -0 -0 -0 -0 -0 -0 -0 -0 0 0 0 0 0 1 1 1 1 1 1 1 1 1 1 1 1 1 1 0 0 0 0 0 1 1 1 1 1 1 1 1 1 1 1 1 2 2 1 1 0 0 1 1 1 1 -1 -1 -1 -0 -0 0 1 1 1 1 1 -0 -1 -1 -1 -1 -1 -1 -1 -1 -0 -0 0 0 -0 -0 -0 -0 0 1 1 1 1 1 1 1 1 1 1 1
1 1 1 1 1 1 1 1 1 1 1 1 1 1 0 0 0 0 0 0 0 0 0 0 0 0 0 1 1 1 1 1 1 1 1 1 1 1 0 0 0 1 1 1 1 1 1 1 1 1 1 2 2 2 2 2 1 1 1 1 1 1 1 0 -1 -1 -1 -0 -0 -0 -0 -0 0 1 0 -0 -1 -1 -0 -0 -0 -1 -1 -1 -0 -0 -0 -0 -1 -1 -1 -1 -0 0 1 1 1 1 1 1 1 1 1
1 2 2 2 2 2 2 2 1 1 1 1 1 1 1 1 1 0 0 0 0 0 -0 -0 -0 -0 -0 -0 0 0 1 1 1 1 1 1 1 1 1 0 1 1 1 1 1 1 1 1 1 1 1 1 2 2 2 2 1 1 1 1 1 1 1 1 0 -1 -1 -1 -1 -1 -1 -1 -0 0 -0 -0 -0 -0 -0 -0 -0 -0 -1 -1 -1 -1 -0 -1 -1 -1 -1 -1 -1 -1 -0 0 0 1 1 1 1 1 1
1 1 1 1 1 1 2 1 1 1 1 2 2 1 1 1 1 1 0 0 0 0 -0 -0 -0 -0 -0 -0 -0 0 0 1 1 1 1 1 1 1 1 1 1 1 1 1 1 1 1 1 1 1 1 1 1 1 1 1 1 1 1 1 1 1 1 1 1 -0 -1 -1 -2 -1 -0 0 -0 -1 -1 -1 -0 -0 -0 -0 -0 -0 -0 -1 -1 -1 -1 -1 -1 -1 -2 -2 -2 -1 -1 -1 -0 -0 0 0 0 1 1
1 1 1 1 1 1 1 1 1 1 1 1 1 1 1 1 1 1 0 0 0 0 0 0 0 -0 0 0 0 0 0 0 1 1 1 1 1 1 1 1 1 1 1 1 1 1 2 2 1 1 1 1 0 1 1 1 1 0 0 0 1 1 1 1 1 0 0 -1 -2 -2 -2 0 -0 -1 -2 -2 -1 -1 -0 -0 -0 -0 -0 -0 -1 -1 -1 -1 -1 -1 -2 -2 -2 -2 -2 -2 -1 -1 -1 -0 -0 0 0
1 1 1 1 1 1 1 1 1 1 1 1 1 1 1 1 1 1 1 0 0 0 0 0 0 0 0 0 0 0 1 1 1 1 1 1 1 1 1 1 1 1 1 1 2 2 2 2 2 2 1 1 1 1 0 0 0 0 0 0 0 0 0 1 1 1 -0 0 0 -1 -2 -2 -2 -2 -2 -2 -2 -1 -1 -1 -1 -0 -0 -0 -0 -0 -0 -1 -1 -1 -2 -2 -2 -2 -2 -2 -2 -2 -1 -1 -1 -1 -0
1 1 1 1 1 1 1 1 1 1 1 1 1 1 1 1 1 1 1 1 1 1 1 1 1 1 1 1 1 1 1 1 1 1 1 1 1 1 1 1 1 1 1 2 2 2 2 3 3 2 2 1 1 1 1 1 0 0 0 0 0 0 0 0 1 1 0 1 1 1 -0 -2 -2 -3 -2 -2 -2 -2 -2 -1 -1 -1 -0 -0 -0 -0 -0 -0 -1 -1 -1 -2 -2 -1 -1 -2 -2 -2 -2 -2 -1 -1 -1
1 1 1 1 1 1 1 1 1 1 1 1 1 1 1 1 1 1 1 1 1 1 1 1 1 1 1 1 1 1 1 1 1 1 1 1 1 1 1 1 1 1 1 2 2 2 2 3 3 3 2 2 1 1 1 1 1 1 0 0 0 0 0 0 0 0 1 0 0 1 1 0 -1 -1 -1 -1 -1 -2 -2 -2 -1 -1 -1 -1 -1 -1 -0 -0 -0 -0 -1 -1 -1 -1 -1 -1 -1 -2 -2 -2 -2 -1 -1
1 1 1 1 1 1 1 1 1 1 1 1 1 1 1 1 1 1 1 1 1 1 1 1 1 1 1 2 2 2 1 1 1 1 1 1 1 1 1 1 1 1 2 2 2 2 2 2 3 3 2 2 2 1 1 1 1 1 1 1 1 0 0 0 0 0 1 1 1 1 1 1 0 -0 -0 -0 -0 -1 -2 -2 -1 -1 -1 -1 -1 -1 -1 -0 -0 -0 -0 -1 -1 -1 -1 -1 -1 -1 -1 -1 -1 -1 -1
1 1 1 1 1 1 1 1 1 1 1 1 1 1 2 1 1 1 2 2 2 2 2 2 2 2 2 2 2 1 1 1 1 1 1 1 1 1 1 1 1 2 2 2 2 2 2 2 2 2 3 2 2 2 1 1 1 1 1 1 0 0 0 0 0 0 0 1 1 1 1 1 0 -0 -0 1 1 -0 -1 -2 -2 -1 -1 -1 -1 -1 -1 -1 -0 -0 -0 -1 -1 -1 -1 -1 -1 -1 -1 -1 -1 -1 -1
1 1 1 1 1 1 1 1 1 1 1 1 1 1 1 1 1 1 1 1 2 2 2 2 1 1 1 1 1 1 1 1 1 1 1 1 1 1 1 1 1 2 2 2 2 2 2 2 2 2 2 2 2 2 1 1 1 1 0 0 0 0 0 0 -0 -0 -0 0 0 1 3 2 1 -0 -1 -0 0 0 -0 -1 -2 -2 -1 -1 -1 -1 -1 -2 -1 -1 -1 -1 -1 -1 -1 -1 -1 -1 -1 -1 -1 -1 -1
1 1 1 1 1 2 1 1 1 1 1 1 1 1 1 1 1 1 1 1 1 1 1 1 1 1 1 1 1 1 0 0 1 1 1 1 1 1 1 1 1 1 2 2 2 2 2 1 1 1 1 1 1 1 0 0 0 0 0 0 0 -0 -0 -0 -0 -0 -1 -0 1 1 0 1 1 0 -1 -0 -0 -1 -1 -1 -1 -2 -2 -1 -1 -1 -1 -2 -2 -2 -1 -1 -1 -1 -0 -0 -1 -1 -1 -1 -1 -1 -1
0 0 1 1 1 1 1 1 1 1 1 1 1 1 1 1 1 1 1 1 1 1 1 1 1 1 1 1 1 1 1 1 1 1 1 1 1 1 1 1 1 1 1 1 1 1 1 1 1 1 1 1 1 0 -0 -0 -0 -0 0 -0 -0 -0 -0 -0 -0 -0 -1 -1 -0 1 1 2 2 1 -0 0 -0 -0 -1 -1 -1 -1 -2 -1 -1 -1 -0 -1 -1 -1 -1 -1 -0 -0 -0 -0 -0 -0 -0 -1 -1 -1 -1
0 0 0 1 1 1 1 1 1 1 1 1 1 1 1 1 1 1 1 1 1 1 1 1 1 1 1 1 1 1 1 1 1 1 1 1 1 1 1 1 1 1 1 1 1 1 1 0 0 0 0 0 0 -0 -0 -1 -1 -1 -1 -1 -1 -1 -0 -0 -0 -0 -0 -1 -1 -0 1 1 1 1 0 0 1 0 -1 -1 -1 -0 -1 -1 -1 -1 -0 -0 -0 -1 -1 -1 -1 -0 -0 0 1 1 0 -0 -0 -0 -1
0 0 0 1 1 1 1 1 1 1 1 1 1 1 1 1 1 1 1 1 1 1 1 1 1 1 1 1 1 1 1 1 1 1 1 1 1 1 1 1 1 1 1 1 1 1 1 0 0 0 0 -0 -0 -0 -1 -1 -1 -1 -1 -1 -1 -1 -1 -0 -0 0 0 -0 -0 -1 -0 0 1 1 0 1 1 1 1 -0 -0 0 0 0 -0 -1 -1 -1 -1 -1 -1 -1 -1 -0 -0 0 1 1 1 1 1 0 -0
1 1 1 1 1 1 1 2 2 1 1 1 1 1 1 1 1 1 1 1 1 1 1 1 1 1 1 1 1 1 1 1 0 0 0 0 1 1 -0 -0 -0 0 -0 -0 -0 0 -0 -0 -0 -0 -0 -0 -0 -0 -1 -1 -1 -1 -1 -1 -1 -1 -1 -1 -0 -0 -0 -0 -0 -1 -0 0 1 1 1 1 1 2 2 2 1 1 1 0 0 -0 -0 -0 -0 -1 -1 -1 -1 -1 -1 -0 0 1 1 1 1 1 0
1 1 1 1 1 1 1 2 2 2 1 1 1 1 1 1 0 0 0 1 1 1 1 1 1 1 1 0 0 0 1 0 -0 -0 0 0 -0 -0 -1 -1 -1 -1 -1 -1 -1 -1 -1 -1 -0 -0 -1 -1 -1 -1 -1 -1 -1 -1 -1 -1 -1 -1 -1 -1 -0 -0 -0 -0 -0 -1 -1 -0 0 1 1 2 1 1 2 2 2 1 1 1 0 0 -0 -0 -0 -0 -1 -1 -1 -1 -1 -1 -1 -0 0 1 2 2 2
1 1 1 1 1 1 1 2 2 1 1 1 1 1 1 0 0 0 -0 0 0 1 1 0 1 1 0 0 0 0 1 -0 -0 -0 -0 -0 -0 -0 -0 -0 -1 -1 -1 -2 -2 -1 -1 -1 -1 -1 -1 -1 -1 -1 -1 -1 -1 -1 -1 -1 -1 -0 -0 -0 -0 -0 -0 -0 -0 -0 -0 -0 0 1 1 2 2 2 2 2 2 2 2 2 1 1 0 -0 0 0 1 0 0 -0 -0 -0 -1 -1 -1 -0 1 2 2
0 1 1 1 1 2 2 2 2 1 1 1 1 1 0 0 0 0 -0 -0 0 0 0 -0 0 0 0 0 0 0 1 0 -0 -1 -0 -0 -0 0 1 1 0 -0 -1 -1 -1 -1 -1 -1 -1 -1 -1 -1 -1 -1 -1 -1 -1 -1 -0 -0 -0 -0 -0 -0 -0 -0 -0 -0 -0 0 0 1 1 1 1 2 2 2 3 3 2 2 2 2 2 2 2 1 1 2 2 2 1 1 1 1 0 -1 -1 -1 -1 1 2
0 0 0 1 1 2 2 2 1 1 1 0 0 0 0 -0 0 0 0 0 0 0 0 -0 -0 -0 0 0 0 0 1 0 -0 -1 -0 -0 0 1 1 1 0 0 0 -0 -0 -1 -1 -1 -1 -1 -1 -1 -1 -1 -1 -1 -0 0 0 0 -0 -0 -0 -0 -0 -0 -0 -0 -0 0 0 1 1 1 1 1 2 2 2 2 3 3 3 3 3 3 3 2 2 2 3 3 2 1 1 2 1 1 1 -1 -1 -1 1
0 -0 -0 0 1 2 2 2 1 1 0 0 0 0 -0 -0 -0 0 0 0 1 1 1 0 -0 -1 -1 0 0 0 0 1 0 -0 0 1 1 1 1 0 0 -0 -0 -0 -0 -0 -0 -0 -1 -1 -1 -1 -1 -1 -1 -0 0 1 1 1 0 0 -0 -0 -0 -0 -0 -0 -0 -0 -0 -0 -0 0 0 0 1 1 2 2 2 2 2 3 3 3 3 2 2 2 2 3 3 2 2 2 1 1 2 2 0 -1 -0
0 0 -0 -0 1 1 2 2 2 1 1 1 1 0 0 -0 -0 -0 -0 -0 -0 0 1 1 -0 -1 -2 -1 -1 -0 -0 0 1 1 1 1 1 1 0 -0 -1 -1 -1 -1 -1 -1 -1 -1 -1 -1 -1 -1 -1 -1 -0 0 1 1 1 1 0 0 -0 -0 -0 -0 -0 -0 -0 -1 -1 -1 -1 -1 -1 -1 -0 -0 0 1 1 1 2 2 2 2 2 2 1 1 1 2 2 3 3 2 1 1 2 3 2 1 -1
-0 0 -0 -0 0 1 2 2 2 2 1 1 1 1 0 0 0 0 -0 -0 -1 -1 -1 -0 -0 -1 -2 -3 -3 -2 -2 -1 0 1 1 1 1 0 -0 -1 -1 -2 -2 -2 -2 -2 -1 -1 -1 -1 -1 -1 -1 -1 -0 0 0 0 1 1 0 0 -0 0 -0 -0 -0 -0 -0 -1 -1 -0 -0 -0 -0 -0 -0 -1 -1 -1 -0 -0 -0 1 1 1 1 1 1 1 1 1 2 3 4 3 3 2 2 3 3 2 -0
-1 -0 -0 0 0 1 1 2 2 2 1 1 1 1 1 1 1 0 -0 -0 -1 -1 -2 -1 -0 -0 -1 -2 -3 -3 -2 -2 -0 0 0 -0 -0 -1 -1 -1 -2 -2 -2 -2 -2 -2 -2 -1 -1 -1 -1 -0 -0 -0 -0 0 0 1 1 1 0 0 0 0 1 1 0 0 0 -0 -0 -0 0 1 1 1 1 1 0 0 -0 -1 -1 -1 -1 -1 -0 -0 -0 -0 -0 1 2 3 4 5 4 3 3 3 3 3 1
-1 -0 -0 0 0 1 1 1 1 1 1 1 0 0 0 1 1 0 -1 -1 -1 -2 -3 -2 -1 -1 -1 -1 -1 -1 -1 -1 -1 -1 -1 -1 -2 -2 -2 -2 -1 -1 -2 -2 -1 -1 -1 -1 -1 -1 -1 -1 -0 -0 -0 0 1 1 1 0 1 1 0 1 1 1 1 1 1 0 0 1 1 1 2 2 2 2 2 2 2 1 0 -1 -1 -1 -1 -2 -2 -2 -3 -2 -0 1 3 5 5 4 3 3 3 4 3
-1 -1 -1 -0 0 0 1 1 0 0 0 0 -0 -0 -0 1 1 1 -0 -1 -1 -2 -3 -3 -2 -2 -2 -1 -0 0 1 1 1 -0 -2 -2 -2 -2 -2 -1 -1 -0 -1 -1 -1 -1 -1 -1 -2 -1 -1 -1 -0 -0 -0 0 1 1 0 1 1 1 0 1 2 2 2 2 1 1 1 1 2 2 2 2 2 2 2 3 3 3 2 2 1 0 -1 -2 -2 -3 -4 -4 -4 -2 -0 2 4 4 4 3 3 4 4
-1 -1 -2 -1 -0 0 0 0 -0 -0 -0 -0 -1 -1 -1 1 2 2 1 1 -0 -1 -1 -2 -2 -3 -2 -1 -1 0 1 2 2 1 -1 -2 -2 -2 -2 -1 -0 0 0 -0 -1 -1 -1 -1 -1 -1 -1 -1 -1 -0 -0 0 0 0 0 1 1 1 1 2 2 3 3 2 1 1 1 1 2 2 2 2 2 2 2 2 2 2 3 3 2 2 1 -0 -1 -3 -4 -5 -5 -5 -5 -2 0 2 4 4 4 4 6
-1 -1 -2 -1 -1 -1 -1 -0 -0 -0 -0 -1 -1 -1 -1 0 1 1 0 -0 -1 -1 -1 -1 -2 -3 -3 -2 -1 -0 0 1 2 2 -0 -2 -3 -2 -1 -1 -1 -0 0 -0 -1 -2 -2 -1 -1 -1 -1 -1 -1 -0 -0 -0 -0 -0 0 1 1 1 1 2 2 2 2 1 1 1 1 1 1 1 1 1 1 1 1 1 1 2 2 2 2 2 2 1 0 -1 -2 -3 -4 -5 -6 -5 -4 -2 -1 1 2 4 6
-0 -1 -1 -1 -1 -1 -1 -0 -0 -0 -1 -1 -1 -1 -0 0 -0 -1 -1 -1 -1 -1 -1 0 -0 -1 -2 -2 -2 -1 -1 0 1 1 0 -2 -3 -3 -0 1 1 -0 -2 -2 -2 -2 -2 -2 -2 -1 -1 -1 -1 -1 -1 -1 -1 -1 -0 -0 0 1 2 2 2 2 1 0 0 1 1 1 1 1 1 1 0 0 0 0 1 1 1 1 1 2 2 2 1 1 -0 -1 -2 -3 -4 -4 -4 -4 -4 -4 -3 -1 1
1 0 -0 -0 -0 -0 -1 -0 0 0 -0 -1 -0 -0 1 1 1 1 1 3 3 2 2 1 1 1 0 -2 -3 -2 -0 -0 -0 -0 -1 -1 -1 -1 -3 -1 -0 -1 -2 -3 -3 -3 -3 -4 -3 -2 -1 -1 -1 -1 -1 -1 -1 -1 -1 -1 -1 0 2 2 2 1 0 -0 -0 0 0 0 1 1 0 0 -0 -0 -0 -0 -0 0 1 1 1 1 2 2 2 2 1 -0 -1 -1 -2 -2 -3 -3 -2 -3 -3 -3 -3
1 1 1 1 1 0 0 1 1 0 0 0 1 1 2 3 4 6 8 7 5 3 2 0 -0 -0 1 -0 -1 -1 -0 -0 0 0 -0 -2 -1 1 -0 -4 -6 -6 -3 -1 -1 -3 -4 -5 -4 -3 -1 -1 -1 -1 -1 -1 -2 -2 -1 -1 -1 -0 1 1 1 1 -0 -0 -0 0 0 0 0 0 -0 -0 -1 -1 -1 -1 -1 -1 0 1 1 1 1 2 2 3 2 1 0 -1 -2 -2 -2 -3 -3 -1 -1 -0 -0
1 1 1 1 1 1 2 1 1 1 2 2 2 4 6 7 9 11 12 8 5 3 2 1 -1 -2 -1 0 0 -0 -0 0 1 1 1 -3 -3 -1 0 -2 -6 -9 -11 -8 -6 -4 -1 -4 -5 -4 -3 -3 -3 -3 -2 -2 -2 -2 -2 -2 -2 -1 -0 -0 -0 -0 -0 -0 0 0 0 0 0 -0 -1 -1 -1 -1 -1 -1 -1 -1 -0 0 1 1 2 2 2 2 2 2 1 -0 -2 -3 -2 -2 -3 -3 -1 1 3
1 1 1 1 1 1 2 2 2 4 5 5 4 5 6 8 9 9 6 5 3 3 1 1 0 -0 -2 -2 -1 -1 -1 0 0 -0 0 -0 -1 -2 -2 -1 -2 -5 -6 -8 -12 -14 -7 -3 -4 -5 -4 -2 -3 -3 -2 -2 -2 -2 -2 -2 -1 -1 -1 -1 -1 -1 -1 -0 0 0 0 0 0 -0 -1 -1 -1 -1 -1 -1 -1 -1 -0 -0 1 2 2 3 2 2 2 2 2 1 -1 -3 -3 -1 -1 -3 -3 -3 -0
1 1 2 1 2 2 2 3 4 5 5 4 2 0 -1 -0 -0 -1 -2 -2 -2 -1 -0 -1 -1 -1 -2 -2 -2 -2 -3 -2 -2 -1 -2 1 2 1 -2 -3 -2 -1 -2 -2 -6 -11 -15 -7 -4 -3 -3 -1 -2 -2 -2 -1 -1 -2 -2 -2 -1 -1 -1 -1 -2 -1 -1 0 1 1 0 0 0 -0 -0 -0 -0 -0 -1 -1 -1 -0 -0 0 1 1 2 3 3 3 2 2 1 1 0 -1 -2 -1 0 0 -1 -3 -6
2 3 3 3 2 3 3 3 3 1 -1 -2 -3 -4 -5 -6 -7 -8 -7 -6 -4 -3 -2 -3 -2 -2 -2 -3 -3 -2 -1 -2 -1 -1 -2 -1 2 4 2 -1 -1 1 1 -0 -2 -4 -7 -8 -8 -6 -5 -3 -3 -4 -4 -2 -1 -1 -1 -1 -1 -1 -1 -1 -1 -1 -0 1 1 1 1 1 0 0 0 0 1 1 1 0 -0 -0 -0 -0 -0 1 2 2 3 2 2 2 1 1 0 1 0 0 0 1 2 0 -3
3 3 3 3 3 3 5 5 3 -0 -3 -3 -4 -4 -4 -4 -6 -6 -6 -5 -4 -3 -4 -4 -4 -4 -3 -4 -4 -4 -2 -2 -2 -1 1 -0 1 3 5 4 3 3 1 -0 -3 -3 -1 -5 -7 -9 -10 -6 -5 -4 -6 -3 -1 0 0 0 -0 -0 -1 -1 -0 0 1 1 1 1 2 1 1 1 1 1 1 2 2 1 0 -0 -0 -1 -1 -0 1 2 2 3 3 2 2 1 -1 -1 -0 0 0 2 3 4 3
1 1 1 2 3 4 5 4 3 0 -1 -3 -4 -4 -4 -3 -3 -3 -4 -5 -4 -4 -4 -4 -4 -4 -2 0 -0 -2 -3 -2 -1 0 2 1 1 1 2 3 2 1 1 -1 -2 -2 -0 -1 -1 -5 -13 -10 -7 -5 -6 -6 -4 -1 1 1 0 -0 -1 -1 -1 -0 1 1 1 1 1 1 1 1 1 1 1 2 2 2 1 1 0 -0 -0 -0 0 1 2 2 3 3 3 2 1 -1 -3 -3 -3 -1 1 3 5
-1 -2 -2 -0 1 3 3 3 3 2 0 -1 -2 -3 -3 -1 0 -1 -3 -4 -4 -4 -3 -1 -1 -2 -2 2 3 2 -1 -1 0 2 1 1 1 1 1 1 1 2 2 0 1 2 1 -0 -0 -2 -8 -11 -11 -8 -4 -8 -8 -6 -2 -0 -0 -1 -2 -3 -2 -1 -0 -0 0 0 0 1 1 1 1 1 1 2 2 2 1 1 1 1 1 0 0 1 2 2 3 4 4 4 3 2 -0 -3 -6 -6 -5 -2 2
-3 -4 -3 -2 -0 1 2 2 2 2 2 1 -0 -1 -2 -0 1 2 -1 -2 -3 -2 -1 0 0 -0 -1 -1 1 1 -0 -2 0 2 1 1 1 1 2 1 0 -0 -0 0 2 4 5 3 -1 -2 3 -5 -11 -12 -5 -7 -9 -9 -7 -4 -3 -3 -4 -4 -3 -2 -1 -1 -1 -1 -0 1 1 2 1 1 1 2 2 2 1 1 1 1 1 1 0 1 1 2 3 5 5 4 3 3 3 2 -2 -5 -6 -5 -4
-4 -3 -3 -1 0 2 2 1 1 1 1 1 0 -1 -2 -2 0 2 1 -1 -1 0 1 0 0 1 0 -2 -3 -2 -1 -2 -0 2 2 2 -0 -0 4 1 -0 -1 0 0 1 3 4 4 3 4 6 2 -4 -10 -14 -10 -8 -7 -8 -6 -6 -6 -7 -6 -4 -3 -2 -2 -1 -1 -1 0 1 2 2 2 2 2 2 1 1 1 1 1 1 1 0 0 1 1 2 3 3 4 3 3 3 4 3 1 0 -1 -2
-3 -2 -1 -1 1 3 2 0 -1 -1 0 1 -0 -1 -2 -1 -0 -0 -1 -2 0 3 4 2 1 1 1 -2 -4 -3 1 1 0 -0 1 2 -0 -1 3 2 1 1 1 1 2 3 3 3 4 6 7 5 3 -0 -9 -12 -10 -7 -9 -6 -5 -6 -8 -7 -5 -4 -4 -3 -2 -1 -0 0 1 1 2 1 1 1 1 1 1 1 1 1 1 1 1 0 0 0 1 2 3 4 3 3 3 3 4 4 3 3 2
Height
1567 1568 1568 1568 1568 1569 1569 1569 1569 1569 1569 1570 1570 1570 1571 1571 1571 1572 1572 1572 1573 1573 1573 1573 1574 1574 1574 1574 1574 1575 1575 1575 1576 1576 1576 1577 1577 1577 1577 1577 1577 1577 1577 1577 1577 1577 1576 1576 1576 1576 1576 1576 1575 1575 1575 1575 1575 1574 1574 1574 1574 1574 1574 1574 1574 1574 1575 1574 1573 1573 1574 1574 1573 1573 1573 1572 1572 1572 1573 1573 1573 1573 1574 1574 1573 1573 1573 1573 1573 1573 1573 1573 1573 1572 1572 1572 1572 1572 1572 1572 1572 1572 1572
1568 1568 1569 1569 1569 1569 1569 1569 1570 1570 1570 1570 1571 1571 1571 1572 1572 1572 1573 1573 1573 1574 1574 1574 1574 1574 1575 1575 1575 1575 1576 1576 1576 1577 1577 1577 1577 1577 1577 1577 1577 1577 1577 1577 1577 1577 1577 1577 1577 1577 1576 1576 1576 1576 1576 1575 1575 1575 1575 1574 1574 1574 1574 1574 1574 1574 1574 1573 1573 1573 1574 1574 1574 1574 1574 1573 1573 1573 1573 1574 1574 1574 1574 1574 1573 1573 1574 1574 1574 1574 1573 1573 1573 1573 1573 1573 1573 1573 1573 1573 1573 1572 1572
1569 1569 1569 1569 1570 1570 1570 1570 1570 1571 1571 1571 1572 1572 1572 1573 1573 1573 1574 1574 1574 1574 1575 1575 1575 1575 1575 1575 1576 1576 1576 1577 1577 1577 1577 1578 1578 1578 1578 1578 1578 1578 1578 1578 1578 1578 1578 1577 1577 1577 1577 1577 1576 1576 1576 1576 1576 1575 1575 1575 1575 1575 1575 1575 1575 1574 1574 1575 1574 1574 1574 1574 1574 1574 1574 1574 1574 1575 1575 1575 1574 1574 1574 1574 1574 1574 1574 1574 1574 1574 1574 1574 1574 1574 1574 1574 1574 1574 1573 1573 1573 1572 1573
1569 1569 1570 1570 1570 1570 1571 1571 1571 1571 1572 1572 1572 1572 1573 1573 1574 1574 1574 1574 1575 1575 1575 1576 1576 1576 1576 1576 1576 1577 1577 1577 1578 1578 1578 1578 1578 1578 1579 1579 1579 1579 1578 1578 1578 1578 1578 1578 1578 1577 1577 1577 1577 1577 1576 1576 1576 1576 1576 1575 1575 1575 1575 1575 1575 1575 1575 1575 1574 1574 1574 1574 1575 1575 1575 1574 1574 1574 1574 1574 1574 1574 1574 1574 1574 1574 1574 1574 1574 1574 1574 1574 1574 1574 1574 1574 1574 1574 1574 1573 1573 1573 1573
1570 1570 1570 1571 1571 1571 1571 1571 1572 1572 1572 1572 1573 1573 1573 1574 1574 1574 1575 1575 1575 1576 1576 1576 1576 1577 1577 1577 1577 1577 1577 1578 1578 1578 1578 1578 1579 1579 1579 1579 1579 1579 1579 1579 1579 1578 1578 1578 1578 1578 1577 1577 1577 1577 1577 1577 1577 1576 1576 1576 1576 1576 1576 1576 1576 1575 1575 1575 1574 1574 1574 1575 1575 1575 1575 1575 1575 1574 1574 1574 1574 1574 1574 1574 1574 1574 1574 1574 1574 1574 1574 1574 1574 1574 1574 1574 1574 1574 1574 1574 1573 1573 1573
1570 1571 1571 1571 1571 1572 1572 1572 1572 1573 1573 1573 1573 1574 1574 1574 1574 1575 1575 1575 1576 1576 1576 1577 1577 1577 1577 1577 1577 1578 1578 1578 1578 1579 1579 1579 1579 1579 1579 1579 1579 1579 1579 1579 1579 1579 1579 1578 1578 1578 1578 1578 1578 1577 1577 1577 1577 1577 1577 1577 1577 1576 1576 1576 1576 1576 1575 1575 1575 1575 1575 1575 1575 1575 1576 1575 1575 1575 1575 1574 1574 1574 1574 1574 1574 1574 1574 1574 1574 1575 1575 1575 1575 1575 1575 1574 1574 1574 1574 1574 1574 1574 1573
1571 1571 1571 1572 1572 1572 1573 1573 1573 1573 1573 1574 1574 1574 1574 1574 1575 1575 1575 1576 1576 1577 1577 1577 1577 1578 1578 1578 1578 1578 1578 1579 1579 1579 1579 1579 1579 1579 1579 1579 1579 1579 1579 1579 1579 1579 1579 1579 1578 1578 1578 1578 1578 1578 1578 1578 1578 1577 1577 1577 1577 1577 1577 1576 1576 1576 1576 1576 1575 1575 1575 1575 1575 1575 1575 1576 1576 1576 1575 1575 1575 1575 1575 1574 1574 1574 1574 1575 1575 1575 1575 1575 1575 1575 1575 1575 1574 1574 1574 1574 1574 1574 1573
1571 1572 1572 1572 1573 1573 1573 1573 1574 1574 1574 1574 1574 1574 1575 1575 1575 1576 1576 1576 1577 1577 1577 1577 1578 1578 1578 1578 1578 1578 1579 1579 1579 1579 1579 1579 1579 1579 1579 1579 1579 1579 1579 1579 1579 1579 1579 1579 1579 1579 1579 1579 1578 1578 1578 1578 1578 1578 1578 1578 1577 1577 1577 1577 1577 1577 1576 1576 1576 1576 1576 1575 1575 1575 1575 1575 1575 1576 1575 1575 1575 1575 1575 1575 1575 1575 1575 1575 1575 1575 1575 1575 1575 1575 1575 1575 1575 1574 1574 1574 1574 1574 1574
1571 1572 1572 1573 1573 1573 1574 1574 1574 1574 1574 1574 1575 1575 1575 1575 1576 1576 1576 1577 1577 1577 1578 1578 1578 1578 1578 1579 1579 1579 1579 1579 1579 1579 1579 1579 1579 1579 1579 1579 1579 1579 1579 1579 1579 1579 1579 1579 1579 1579 1579 1579 1579 1579 1579 1579 1578 1578 1578 1578 1578 1578 1577 1577 1577 1577 1577 1577 1576 1576 1576 1576 1576 1576 1576 1575 1575 1575 1575 1575 1575 1575 1575 1575 1575 1575 1575 1575 1575 1575 1575 1575 1575 1575 1575 1575 1575 1574 1574 1574 1574 1574 1573
1572 1572 1572 1573 1573 1574 1574 1574 1574 1575 1575 1575 1575 1575 1576 1576 1576 1576 1577 1577 1577 1578 1578 1578 1578 1579 1579 1579 1579 1579 1579 1579 1579 1579 1579 1580 1580 1580 1580 1580 1580 1580 1580 1580 1580 1580 1580 1580 1579 1579 1579 1579 1579 1579 1579 1579 1579 1579 1579 1578 1578 1578 1578 1578 1577 1577 1577 1577 1577 1577 1576 1576 1576 1576 1576 1575 1575 1575 1575 1576 1576 1576 1576 1575 1575 1575 1575 1575 1575 1575 1575 1575 1575 1575 1575 1575 1574 1574 1574 1574 1574 1574 1573
1572 1572 1573 1573 1574 1574 1574 1574 1575 1575 1575 1575 1576 1576 1576 1576 1577 1577 1577 1577 1578 1578 1578 1578 1579 1579 1579 1579 1579 1579 1579 1579 1580 1580 1580 1580 1580 1580 1580 1580 1580 1580 1580 1580 1580 1580 1580 1580 1580 1580 1580 1580 1580 1580 1579 1579 1579 1579 1579 1579 1579 1579 1578 1578 1578 1578 1577 1577 1577 1577 1577 1577 1576 1576 1576 1576 1576 1575 1575 1575 1576 1576 1576 1576 1575 1575 1575 1575 1575 1575 1575 1575 1575 1574 1574 1574 1574 1574 1574 1574 1573 1573 1573
1572 1572 1573 1573 1574 1574 1574 1574 1575 1575 1575 1576 1576 1576 1576 1577 1577 1577 1577 1578 1578 1578 1579 1579 1579 1579 1579 1579 1579 1579 1579 1579 1580 1580 1580 1580 1580 1580 1580 1580 1580 1580 1580 1580 1581 1581 1581 1581 1581 1580 1580 1580 1580 1580 1580 1580 1579 1579 1579 1579 1579 1579 1579 1579 1578 1578 1578 1577 1577 1577 1577 1577 1576 1576 1576 1576 1576 1575 1575 1575 1575 1575 1575 1575 1575 1575 1575 1575 1575 1575 1575 1575 1575 1574 1574 1574 1574 1574 1573 1573 1573 1573 1573
1572 1573 1573 1573 1574 1574 1574 1574 1575 1575 1575 1576 1576 1576 1577 1577 1577 1577 1578 1578 1578 1579 1579 1579 1579 1579 1580 1580 1580 1580 1580 1580 1580 1580 1580 1580 1581 1581 1581 1581 1581 1581 1581 1581 1581 1581 1581 1581 1581 1581 1581 1581 1581 1581 1580 1580 1580 1580 1579 1579 1579 1579 1579 1579 1579 1578 1578 1578 1577 1577 1577 1577 1577 1576 1576 1576 1576 1575 1575 1575 1575 1575 1575 1575 1575 1575 1575 1575 1575 1575 1575 1575 1574 1574 1574 1574 1573 1573 1573 1573 1572 1572 1572
1572 1573 1573 1573 1574 1574 1574 1574 1575 1575 1575 1576 1576 1576 1577 1577 1577 1578 1578 1578 1578 1579 1579 1579 1579 1579 1580 1580 1580 1580 1580 1580 1580 1580 1580 1581 1581 1581 1581 1581 1581 1581 1581 1581 1581 1581 1582 1582 1582 1582 1582 1581 1581 1581 1581 1581 1581 1580 1580 1580 1579 1579 1579 1579 1579 1578 1578 1578 1577 1577 1577 1577 1577 1577 1576 1576 1576 1576 1576 1576 1575 1575 1575 1575 1575 1575 1575 1575 1575 1574 1574 1574 1574 1574 1574 1573 1573 1573 1572 1572 1572 1572 1572
1573 1573 1573 1574 1574 1574 1574 1575 1575 1576 1576 1576 1577 1577 1577 1577 1577 1578 1578 1578 1578 1579 1579 1579 1579 1580 1580 1580 1580 1580 1580 1580 1580 1580 1580 1581 1581 1581 1581 1581 1581 1581 1581 1581 1582 1582 1582 1582 1582 1582 1582 1582 1582 1582 1581 1581 1581 1581 1580 1580 1580 1579 1579 1579 1579 1579 1579 1578 1578 1577 1577 1577 1577 1577 1577 1577 1576 1576 1576 1576 1576 1576 1576 1575 1575 1575 1575 1575 1575 1574 1574 1574 1574 1574 1573 1573 1573 1573 1572 1572 1572 1572 1571
1574 1574 1574 1574 1574 1574 1575 1576 1576 1577 1577 1578 1578 1578 1578 1578 1578 1579 1579 1579 1579 1579 1579 1579 1580 1580 1580 1580 1581 1581 1581 1581 1580 1580 1580 1581 1581 1581 1581 1581 1581 1582 1582 1582 1582 1582 1582 1582 1582 1582 1582 1582 1582 1582 1582 1582 1581 1581 1581 1580 1580 1580 1579 1579 1579 1579 1579 1579 1578 1578 1578 1577 1577 1577 1577 1577 1577 1576 1576 1576 1576 1576 1576 1576 1576 1575 1575 1575 1574 1574 1574 1574 1574 1573 1573 1573 1573 1572 1572 1572 1572 1571 1571
1574 1574 1574 1574 1575 1575 1576 1576 1577 1577 1578 1578 1579 1579 1579 1579 1579 1579 1579 1579 1580 1580 1580 1580 1580 1580 1581 1581 1581 1581 1581 1581 1581 1581 1581 1581 1581 1581 1581 1581 1582 1582 1582 1582 1582 1582 1582 1582 1583 1583 1583 1583 1583 1582 1582 1582 1582 1581 1581 1581 1581 1580 1580 1579 1579 1579 1579 1579 1579 1578 1578 1578 1578 1577 1577 1577 1577 1577 1576 1576 1576 1576 1576 1576 1576 1575 1575 1575 1574 1574 1574 1574 1574 1573 1573 1573 1573 1572 1572 1572 1572 1571 1571
1574 1574 1575 1575 1575 1575 1576 1576 1577 1577 1578 1578 1578 1579 1579 1579 1579 1580 1580 1580 1580 1580 1580 1581 1581 1581 1581 1581 1581 1581 1582 1582 1581 1581 1581 1581 1582 1582 1582 1582 1582 1582 1583 1583 1583 1583 1583 1583 1583 1583 1583 1583 1583 1583 1582 1582 1582 1582 1582 1581 1581 1581 1580 1580 1579 1579 1579 1579 1579 1579 1578 1578 1578 1578 1577 1577 1577 1577 1577 1577 1576 1576 1576 1576 1576 1576 1575 1575 1574 1574 1574 1574 1574 1573 1573 1573 1573 1572 1572 1572 1572 1572 1571
1574 1574 1574 1575 1575 1576 1576 1576 1577 1577 1577 1578 1578 1578 1579 1579 1579 1579 1580 1580 1580 1580 1580 1581 1581 1581 1581 1581 1582 1582 1582 1582 1582 1582 1582 1582 1582 1582 1582 1582 1582 1583 1583 1583 1583 1583 1583 1583 1583 1583 1583 1583 1583 1583 1583 1582 1582 1582 1582 1582 1581 1581 1581 1581 1580 1579 1579 1579 1579 1579 1579 1579 1578 1578 1578 1577 1577 1577 1577 1577 1577 1577 1576 1576 1576 1576 1575 1575 1574 1574 1574 1574 1574 1573 1573 1573 1573 1572 1572 1572 1572 1572 1571
1574 1574 1574 1575 1575 1575 1576 1576 1576 1577 1577 1577 1578 1578 1578 1579 1579 1579 1579 1579 1580 1580 1580 1580 1581 1581 1581 1581 1581 1582 1582 1582 1582 1582 1582 1582 1582 1582 1582 1582 1582 1583 1583 1583 1583 1583 1583 1583 1583 1583 1583 1583 1583 1583 1583 1583 1583 1582 1582 1582 1581 1581 1581 1581 1581 1580 1580 1579 1579 1579 1579 1579 1579 1578 1578 1578 1577 1577 1577 1577 1577 1577 1576 1576 1576 1576 1575 1575 1574 1574 1574 1574 1574 1573 1573 1573 1573 1572 1572 1572 1572 1572 1572
1573 1573 1574 1574 1574 1575 1575 1576 1576 1576 1576 1577 1577 1577 1578 1578 1578 1579 1579 1579 1579 1580 1580 1580 1581 1581 1581 1581 1581 1582 1582 1582 1582 1582 1582 1582 1582 1582 1582 1582 1582 1583 1583 1583 1583 1583 1583 1584 1584 1583 1583 1583 1583 1583 1583 1583 1583 1582 1582 1582 1582 1581 1581 1581 1581 1581 1580 1580 1579 1579 1579 1579 1579 1579 1578 1578 1577 1577 1577 1577 1577 1577 1576 1576 1576 1576 1575 1575 1574 1574 1574 1574 1574 1573 1573 1573 1573 1572 1572 1572 1572 1572 1572
1572 1573 1573 1574 1574 1574 1575 1575 1575 1576 1576 1576 1577 1577 1577 1578 1578 1578 1579 1579 1579 1580 1580 1580 1580 1581 1581 1581 1581 1581 1582 1582 1582 1582 1582 1582 1582 1582 1582 1582 1582 1582 1583 1583 1583 1583 1583 1584 1584 1583 1583 1583 1583 1583 1583 1583 1583 1583 1582 1582 1582 1581 1581 1581 1581 1581 1581 1580 1580 1579 1579 1579 1579 1579 1578 1578 1577 1577 1577 1577 1577 1577 1576 1576 1576 1576 1575 1575 1574 1574 1574 1574 1574 1573 1573 1573 1573 1572 1572 1572 1572 1572 1572
1572 1573 1573 1574 1574 1574 1574 1575 1575 1575 1576 1576 1576 1577 1577 1577 1578 1578 1578 1579 1579 1579 1580 1580 1580 1581 1581 1581 1581 1581 1582 1582 1582 1582 1582 1582 1582 1582 1582 1582 1582 1582 1582 1583 1583 1583 1583 1583 1583 1583 1583 1583 1583 1583 1583 1583 1583 1582 1582 1582 1582 1581 1581 1581 1581 1581 1581 1580 1580 1580 1579 1579 1579 1579 1578 1578 1577 1577 1577 1577 1577 1576 1576 1576 1576 1575 1575 1575 1574 1574 1574 1574 1573 1573 1573 1573 1573 1572 1572 1572 1572 1572 1572
1572 1573 1573 1574 1574 1574 1574 1575 1575 1575 1576 1576 1576 1577 1577 1577 1577 1578 1578 1578 1579 1579 1579 1580 1580 1580 1580 1581 1581 1581 1581 1582 1582 1582 1582 1582 1582 1582 1582 1582 1582 1582 1582 1582 1583 1583 1583 1583 1583 1583 1583 1583 1583 1583 1583 1583 1583 1582 1582 1582 1582 1581 1581 1581 1581 1581 1580 1580 1580 1580 1580 1579 1579 1579 1578 1578 1577 1577 1577 1577 1576 1576 1576 1576 1575 1575 1575 1575 1574 1574 1574 1574 1573 1573 1573 1573 1573 1572 1572 1572 1572 1572 1572
1572 1573 1573 1574 1574 1574 1574 1575 1575 1575 1576 1576 1576 1576 1577 1577 1577 1578 1578 1578 1578 1579 1579 1579 1579 1580 1580 1580 1581 1581 1581 1581 1581 1581 1582 1582 1582 1582 1582 1582 1582 1582 1582 1582 1582 1583 1583 1583 1583 1583 1583 1583 1583 1583 1583 1583 1582 1582 1582 1582 1581 1581 1581 1581 1581 1580 1580 1580 1580 1580 1579 1579 1579 1578 1578 1577 1577 1577 1577 1576 1576 1576 1576 1575 1575 1575 1575 1574 1574 1574 1574 1573 1573 1573 1573 1573 1573 1572 1572 1572 1572 1571 1571
1572 1573 1573 1573 1574 1574 1574 1574 1575 1575 1575 1576 1576 1576 1576 1577 1577 1577 1578 1578 1578 1578 1579 1579 1579 1579 1579 1580 1580 1580 1580 1581 1581 1581 1581 1581 1581 1581 1581 1582 1582 1582 1582 1582 1582 1582 1583 1583 1583 1583 1583 1583 1583 1583 1583 1582 1582 1582 1582 1581 1581 1581 1581 1580 1580 1580 1580 1580 1580 1579 1579 1579 1579 1578 1577 1577 1577 1576 1576 1576 1576 1575 1575 1575 1575 1574 1574 1574 1574 1574 1573 1573 1573 1573 1573 1573 1572 1572 1572 1572 1571 1571 1571
1572 1572 1573 1573 1574 1574 1574 1574 1575 1575 1575 1575 1576 1576 1576 1576 1577 1577 1577 1577 1578 1578 1578 1578 1579 1579 1579 1579 1579 1580 1580 1580 1580 1580 1580 1581 1581 1581 1581 1581 1581 1581 1581 1582 1582 1582 1582 1582 1583 1583 1583 1583 1582 1582 1582 1582 1582 1582 1581 1581 1581 1581 1580 1580 1580 1580 1580 1580 1580 1579 1579 1579 1578 1578 1577 1577 1576 1576 1576 1575 1575 1575 1575 1574 1574 1574 1574 1574 1574 1573 1573 1573 1573 1572 1572 1572 1572 1572 1572 1571 1571 1571 1571
1572 1572 1573 1573 1573 1574 1574 1574 1574 1575 1575 1575 1575 1575 1576 1576 1576 1576 1577 1577 1577 1577 1578 1578 1578 1578 1578 1579 1579 1579 1579 1579 1579 1580 1580 1580 1580 1580 1581 1581 1581 1581 1581 1581 1581 1582 1582 1582 1582 1582 1582 1582 1582 1582 1582 1582 1581 1581 1581 1581 1580 1580 1580 1580 1580 1580 1579 1579 1579 1579 1579 1579 1578 1577 1577 1577 1576 1576 1575 1575 1575 1574 1574 1574 1574 1574 1574 1573 1573 1573 1573 1572 1572 1572 1572 1572 1572 1571 1571 1571 1571 1571 1571
1571 1572 1572 1573 1573 1574 1574 1574 1574 1574 1574 1574 1575 1575 1575 1576 1576 1576 1576 1576 1577 1577 1577 1577 1577 1578 1578 1578 1578 1579 1579 1579 1579 1579 1579 1579 1580 1580 1580 1580 1580 1581 1581 1581 1581 1581 1581 1581 1581 1581 1582 1582 1581 1581 1581 1581 1581 1581 1580 1580 1580 1580 1580 1579 1579 1579 1579 1579 1579 1579 1579 1579 1578 1577 1577 1576 1576 1575 1575 1574 1574 1574 1574 1574 1574 1573 1573 1573 1573 1572 1572 1572 1572 1572 1572 1571 1571 1571 1571 1571 1571 1571 1570
1571 1572 1572 1572 1573 1573 1573 1574 1574 1574 1574 1574 1574 1575 1575 1575 1575 1575 1576 1576 1576 1576 1576 1577 1577 1577 1577 1577 1578 1578 1578 1578 1578 1578 1579 1579 1579 1579 1579 1580 1580 1580 1580 1580 1581 1581 1581 1581 1581 1581 1581 1581 1581 1581 1581 1580 1580 1580 1580 1580 1579 1579 1579 1579 1579 1579 1579 1579 1579 1579 1578 1578 1578 1577 1576 1576 1576 1575 1574 1574 1574 1574 1573 1573 1573 1573 1573 1572 1572 1572 1572 1571 1571 1571 1571 1571 1571 1571 1570 1570 1570 1570 1570
1571 1571 1572 1572 1572 1573 1573 1573 1573 1573 1574 1574 1574 1574 1574 1574 1574 1575 1575 1575 1575 1576 1576 1576 1576 1576 1576 1576 1577 1577 1577 1577 1577 1578 1578 1578 1579 1579 1579 1579 1579 1579 1580 1580 1580 1580 1580 1580 1580 1580 1580 1580 1580 1580 1580 1579 1579 1579 1579 1579 1579 1579 1579 1578 1578 1578 1578 1578 1578 1578 1578 1578 1577 1577 1576 1576 1575 1575 1574 1574 1573 1573 1573 1573 1573 1572 1572 1572 1571 1571 1571 1571 1571 1571 1571 1571 1570 1570 1570 1570 1570 1570 1569
1570 1571 1571 1571 1572 1572 1572 1573 1573 1573 1573 1573 1573 1574 1574 1574 1574 1574 1574 1574 1575 1575 1575 1575 1575 1575 1575 1576 1576 1576 1576 1577 1577 1577 1578 1578 1578 1578 1579 1579 1579 1579 1579 1579 1579 1579 1579 1579 1579 1579 1579 1579 1579 1579 1579 1579 1579 1579 1579 1578 1578 1578 1578 1578 1578 1577 1577 1578 1578 1578 1578 1577 1577 1577 1576 1576 1575 1575 1574 1574 1573 1573 1572 1572 1572 1572 1572 1571 1571 1571 1571 1570 1570 1570 1570 1570 1570 1570 1570 1569 1569 1569 1569
1570 1570 1571 1571 1571 1572 1572 1572 1572 1572 1572 1573 1573 1573 1573 1573 1573 1574 1574 1574 1574 1574 1574 1574 1574 1575 1575 1575 1575 1575 1576 1576 1576 1577 1577 1577 1578 1578 1578 1578 1578 1578 1578 1578 1579 1579 1578 1578 1578 1578 1578 1578 1578 1578 1578 1578 1578 1578 1578 1578 1578 1577 1577 1577 1577 1577 1576 1576 1577 1577 1577 1577 1576 1576 1576 1575 1575 1575 1574 1574 1573 1573 1572 1572 1572 1572 1571 1571 1571 1570 1570 1570 1570 1570 1569 1569 1569 1569 1569 1569 1569 1569 1569
1569 1570 1570 1570 1571 1571 1571 1572 1572 1572 1572 1572 1572 1572 1572 1573 1573 1573 1573 1573 1573 1574 1574 1574 1574 1574 1574 1574 1575 1575 1575 1575 1576 1576 1576 1577 1577 1577 1577 1577 1577 1577 1577 1577 1577 1577 1577 1577 1577 1577 1577 1577 1577 1577 1577 1577 1577 1577 1577 1577 1577 1577 1576 1576 1576 1576 1576 1575 1575 1576 1576 1576 1576 1575 1575 1575 1575 1574 1574 1573 1573 1572 1572 1571 1571 1571 1571 1571 1570 1570 1570 1569 1569 1569 1569 1569 1569 1569 1569 1569 1569 1568 1568
1569 1569 1570 1570 1570 1571 1571 1571 1572 1572 1572 1572 1572 1572 1572 1572 1572 1572 1572 1573 1573 1573 1573 1573 1573 1574 1574 1574 1574 1574 1574 1575 1575 1575 1576 1576 1576 1576 1577 1577 1577 1577 1577 1577 1577 1577 1576 1576 1576 1576 1576 1576 1576 1576 1576 1576 1576 1576 1576 1576 1576 1576 1576 1575 1575 1575 1575 1575 1574 1574 1574 1574 1574 1574 1574 1574 1574 1574 1573 1573 1572 1572 1572 1571 1571 1571 1570 1570 1570 1570 1569 1569 1569 1569 1569 1569 1569 1569 1569 1569 1568 1568 1568
1569 1569 1569 1570 1570 1570 1571 1571 1571 1571 1571 1571 1571 1571 1571 1571 1572 1572 1572 1572 1572 1572 1573 1573 1573 1573 1573 1573 1574 1574 1574 1574 1574 1574 1575 1575 1575 1576 1576 1576 1576 1576 1576 1576 1576 1576 1576 1576 1576 1575 1575 1575 1575 1575 1575 1575 1575 1575 1575 1575 1575 1575 1575 1575 1575 1574 1574 1574 1574 1574 1574 1574 1574 1574 1574 1573 1573 1573 1573 1572 1572 1572 1571 1571 1570 1570 1570 1570 1569 1569 1569 1569 1569 1568 1568 1568 1568 1568 1568 1568 1568 1568 1567
1568 1569 1569 1569 1569 1570 1570 1570 1570 1570 1570 1570 1570 1571 1571 1571 1571 1571 1571 1572 1572 1572 1572 1572 1572 1572 1573 1573 1573 1573 1573 1573 1574 1574 1574 1574 1574 1574 1575 1575 1575 1575 1575 1575 1575 1575 1575 1575 1575 1574 1574 1574 1574 1574 1574 1574 1574 1574 1574 1574 1574 1574 1574 1574 1574 1574 1574 1573 1573 1573 1573 1573 1573 1573 1573 1572 1572 1572 1572 1572 1571 1571 1571 1571 1570 1570 1569 1569 1569 1569 1569 1568 1568 1568 1568 1568 1567 1567 1567 1568 1568 1567 1567
1568 1568 1568 1568 1569 1569 1569 1569 1570 1570 1570 1570 1570 1570 1570 1570 1570 1571 1571 1571 1571 1571 1571 1572 1572 1572 1572 1572 1572 1572 1572 1573 1573 1573 1573 1573 1574 1574 1574 1574 1574 1574 1574 1574 1574 1574 1574 1574 1574 1574 1574 1573 1573 1573 1573 1573 1574 1574 1574 1574 1574 1573 1573 1573 1573 1573 1573 1573 1572 1572 1572 1572 1572 1572 1572 1571 1571 1571 1571 1571 1571 1571 1570 1570 1570 1570 1569 1569 1569 1569 1569 1568 1568 1568 1567 1567 1567 1566 1566 1567 1567 1567 1567
1567 1567 1567 1567 1568 1568 1568 1569 1569 1569 1569 1569 1569 1569 1570 1570 1570 1570 1570 1570 1571 1571 1571 1571 1571 1571 1571 1571 1571 1571 1572 1572 1572 1572 1572 1572 1573 1573 1573 1573 1573 1573 1573 1573 1573 1573 1573 1573 1573 1573 1572 1572 1572 1572 1572 1572 1573 1573 1573 1572 1572 1572 1572 1572 1572 1572 1572 1572 1571 1571 1571 1571 1571 1570 1570 1570 1570 1570 1570 1570 1570 1570 1570 1570 1570 1569 1569 1569 1569 1569 1569 1569 1568 1568 1567 1567 1567 1566 1566 1565 1566 1566 1566
1566 1566 1566 1566 1567 1567 1568 1568 1568 1569 1569 1569 1569 1569 1569 1569 1569 1569 1570 1570 1570 1570 1570 1570 1570 1570 1570 1570 1570 1570 1571 1571 1571 1571 1571 1571 1571 1572 1572 1572 1572 1572 1572 1572 1571 1571 1571 1571 1571 1571 1571 1571 1571 1571 1571 1571 1571 1571 1571 1571 1571 1571 1571 1571 1571 1571 1571 1571 1570 1570 1570 1570 1570 1569 1569 1569 1569 1569 1569 1569 1569 1569 1569 1569 1569 1569 1569 1569 1569 1569 1569 1569 1568 1568 1568 1567 1567 1566 1566 1565 1565 1565 1565
1565 1565 1565 1565 1566 1566 1567 1567 1568 1568 1568 1568 1568 1568 1568 1569 1569 1569 1569 1569 1569 1569 1569 1569 1569 1569 1569 1569 1569 1569 1569 1570 1570 1570 1570 1570 1570 1570 1571 1571 1571 1571 1571 1570 1570 1570 1570 1570 1570 1570 1570 1570 1570 1570 1570 1570 1570 1570 1570 1570 1570 1570 1570 1569 1569 1569 1569 1569 1569 1569 1569 1569 1569 1569 1569 1569 1568 1568 1568 1568 1568 1568 1568 1568 1568 1568 1568 1568 1568 1568 1569 1569 1568 1568 1567 1567 1567 1567 1566 1565 1564 1564 1564
1564 1564 1565 1565 1565 1566 1566 1567 1567 1567 1567 1567 1567 1568 1568 1568 1568 1568 1568 1568 1569 1569 1569 1569 1569 1569 1569 1569 1569 1569 1569 1569 1569 1569 1569 1569 1569 1569 1569 1569 1569 1569 1569 1569 1569 1569 1569 1569 1569 1569 1569 1569 1569 1569 1569 1569 1569 1569 1569 1569 1569 1569 1569 1568 1568 1568 1568 1568 1568 1568 1568 1568 1568 1568 1568 1568 1567 1567 1567 1567 1567 1567 1567 1567 1567 1567 1567 1567 1567 1567 1567 1568 1568 1567 1567 1567 1566 1566 1566 1566 1565 1564 1564
1563 1564 1564 1564 1564 1565 1565 1566 1566 1566 1566 1566 1567 1567 1567 1567 1567 1567 1567 1568 1568 1568 1568 1568 1568 1568 1568 1568 1568 1568 1568 1568 1568 1568 1568 1568 1568 1568 1568 1568 1569 1569 1569 1568 1568 1568 1568 1568 1568 1568 1568 1568 1568 1568 1568 1568 1568 1568 1568 1568 1568 1567 1567 1567 1567 1567 1567 1567 1567 1567 1567 1567 1567 1566 1566 1566 1566 1566 1566 1566 1566 1566 1566 1566 1566 1566 1566 1566 1566 1566 1566 1567 1567 1567 1566 1566 1566 1566 1566 1566 1565 1564 1564
1563 1563 1564 1564 1564 1564 1564 1565 1565 1565 1565 1566 1566 1566 1566 1566 1566 1566 1566 1566 1566 1566 1567 1567 1568 1568 1567 1567 1567 1567 1567 1567 1567 1567 1567 1567 1567 1567 1567 1567 1567 1567 1567 1567 1567 1567 1567 1567 1567 1566 1566 1566 1566 1566 1566 1566 1566 1566 1566 1566 1566 1566 1566 1566 1565 1565 1565 1565 1565 1565 1565 1565 1565 1565 1565 1565 1565 1565 1565 1565 1564 1564 1564 1564 1564 1564 1564 1564 1564 1565 1565 1565 1566 1566 1566 1565 1565 1565 1565 1565 1565 1564 1564
1562 1562 1563 1563 1563 1564 1564 1564 1564 1564 1564 1565 1565 1565 1565 1565 1565 1565 1565 1565 1565 1565 1565 1566 1566 1566 1566 1566 1566 1566 1566 1566 1566 1566 1565 1565 1565 1565 1565 1566 1566 1566 1566 1566 1566 1566 1566 1565 1565 1565 1565 1565 1565 1565 1565 1565 1565 1565 1565 1565 1565 1564 1564 1564 1564 1564 1564 1564 1564 1564 1564 1564 1564 1564 1564 1564 1564 1564 1564 1564 1564 1563 1563 1563 1563 1563 1563 1563 1563 1563 1563 1564 1564 1564 1564 1564 1564 1564 1564 1564 1564 1564 1564
1562 1562 1562 1563 1563 1563 1563 1564 1564 1564 1564 1564 1564 1564 1564 1564 1564 1565 1565 1565 1565 1564 1564 1564 1564 1565 1565 1565 1565 1564 1564 1564 1564 1564 1564 1564 1564 1564 1564 1564 1564 1564 1564 1564 1564 1564 1564 1564 1564 1564 1564 1564 1564 1564 1564 1564 1564 1564 1564 1563 1563 1563 1563 1563 1563 1563 1563 1563 1563 1562 1562 1562 1562 1562 1562 1562 1562 1562 1562 1562 1562 1562 1562 1562 1562 1561 1561 1561 1561 1561 1561 1562 1562 1563 1563 1564 1564 1564 1564 1564 1564 1564 1563
1561 1561 1562 1562 1562 1562 1563 1563 1563 1563 1563 1563 1563 1563 1563 1564 1564 1564 1564 1564 1564 1564 1564 1563 1563 1563 1563 1563 1564 1563 1563 1563 1563 1563 1563 1562 1562 1562 1562 1562 1562 1563 1563 1563 1563 1563 1563 1563 1563 1563 1563 1563 1563 1562 1562 1562 1562 1562 1562 1562 1562 1562 1562 1562 1562 1562 1562 1561 1561 1561 1561 1561 1561 1561 1561 1561 1561 1561 1561 1561 1561 1561 1561 1561 1560 1560 1560 1560 1559 1559 1559 1559 1560 1560 1561 1562 1562 1562 1563 1563 1563 1563 1563
1560 1561 1561 1561 1561 1562 1562 1562 1562 1562 1562 1562 1562 1562 1563 1563 1563 1563 1563 1563 1563 1563 1563 1562 1562 1562 1562 1562 1562 1562 1562 1562 1562 1561 1561 1561 1560 1561 1561 1561 1561 1561 1561 1561 1561 1561 1561 1561 1561 1561 1561 1561 1561 1561 1561 1561 1561 1561 1561 1561 1561 1561 1561 1561 1561 1561 1560 1560 1560 1560 1560 1560 1559 1559 1559 1560 1560 1560 1560 1560 1559 1559 1559 1559 1559 1559 1559 1559 1558 1558 1558 1558 1558 1558 1559 1559 1560 1560 1561 1561 1561 1562 1562
1560 1560 1560 1560 1561 1561 1561 1561 1561 1561 1562 1562 1562 1562 1562 1562 1562 1562 1562 1562 1562 1562 1562 1561 1561 1561 1561 1560 1560 1560 1561 1561 1560 1560 1560 1559 1559 1559 1559 1559 1559 1559 1559 1559 1559 1559 1559 1559 1559 1559 1560 1560 1560 1560 1560 1560 1560 1560 1560 1560 1560 1560 1560 1560 1559 1559 1559 1559 1559 1559 1559 1559 1558 1558 1558 1558 1558 1558 1558 1558 1558 1558 1558 1558 1558 1558 1558 1558 1557 1557 1556 1556 1556 1556 1557 1557 1558 1558 1559 1559 1559 1560 1560
1559 1559 1559 1560 1560 1560 1560 1560 1561 1561 1561 1561 1561 1561 1561 1561 1561 1561 1561 1561 1561 1561 1560 1560 1560 1560 1560 1559 1559 1559 1559 1560 1560 1559 1559 1559 1558 1558 1558 1558 1558 1558 1558 1558 1558 1558 1558 1558 1558 1558 1558 1558 1558 1558 1558 1558 1558 1558 1558 1558 1558 1558 1558 1558 1558 1558 1558 1558 1558 1558 1557 1557 1557 1557 1557 1557 1557 1557 1557 1557 1557 1557 1556 1556 1556 1556 1556 1556 1556 1556 1555 1555 1555 1555 1555 1555 1556 1556 1556 1557 1557 1557 1558
1558 1559 1559 1559 1559 1559 1559 1560 1560 1560 1560 1560 1560 1560 1560 1560 1560 1560 1560 1560 1560 1560 1559 1559 1559 1559 1559 1559 1559 1559 1559 1559 1559 1559 1558 1558 1558 1558 1557 1556 1556 1556 1556 1556 1556 1556 1556 1556 1556 1557 1557 1557 1557 1557 1557 1557 1557 1557 1557 1557 1557 1557 1557 1557 1557 1557 1557 1557 1556 1556 1556 1556 1556 1556 1556 1556 1555 1555 1555 1555 1555 1555 1555 1555 1555 1554 1554 1554 1554 1554 1554 1554 1554 1553 1553 1554 1554 1554 1554 1555 1555 1555 1556
1557 1558 1558 1558 1558 1559 1559 1559 1559 1559 1559 1559 1559 1559 1559 1559 1559 1559 1559 1559 1559 1559 1558 1558 1558 1558 1557 1557 1557 1557 1558 1558 1558 1558 1558 1557 1557 1557 1556 1556 1555 1555 1554 1554 1554 1554 1555 1555 1555 1555 1555 1555 1555 1555 1555 1555 1555 1555 1555 1555 1555 1555 1555 1555 1555 1555 1555 1555 1555 1555 1555 1555 1555 1555 1554 1554 1554 1554 1554 1554 1553 1553 1553 1553 1553 1553 1553 1553 1553 1553 1553 1553 1552 1552 1552 1552 1552 1552 1553 1553 1554 1554 1554
1556 1557 1557 1557 1557 1558 1558 1558 1558 1558 1558 1558 1558 1558 1558 1558 1558 1557 1557 1557 1557 1557 1557 1557 1557 1557 1556 1556 1556 1556 1556 1556 1556 1556 1557 1557 1556 1556 1555 1555 1555 1555 1554 1554 1553 1552 1553 1553 1553 1553 1553 1553 1554 1554 1554 1554 1554 1554 1554 1554 1554 1554 1554 1554 1554 1554 1554 1554 1554 1554 1554 1554 1554 1553 1553 1553 1553 1552 1552 1552 1552 1551 1551 1551 1551 1551 1551 1551 1551 1551 1551 1551 1551 1550 1550 1550 1550 1550 1551 1551 1551 1552 1552
1555 1556 1556 1556 1556 1557 1557 1557 1557 1557 1556 1556 1556 1556 1556 1556 1555 1555 1555 1556 1556 1556 1556 1556 1556 1556 1555 1555 1555 1555 1555 1555 1555 1555 1555 1555 1555 1555 1554 1554 1554 1554 1554 1554 1553 1552 1551 1551 1551 1551 1552 1552 1552 1552 1552 1552 1552 1552 1553 1552 1552 1552 1552 1552 1552 1552 1552 1553 1553 1553 1553 1553 1552 1552 1552 1551 1551 1551 1550 1550 1550 1549 1549 1549 1549 1549 1549 1549 1549 1549 1549 1549 1549 1549 1549 1548 1548 1548 1549 1549 1549 1549 1550
1554 1554 1555 1555 1555 1555 1555 1555 1555 1555 1555 1554 1554 1554 1554 1554 1554 1554 1554 1555 1555 1555 1555 1555 1555 1555 1555 1554 1554 1554 1554 1554 1554 1554 1554 1554 1554 1554 1554 1554 1554 1554 1553 1553 1553 1552 1551 1550 1550 1550 1550 1550 1551 1551 1551 1551 1551 1551 1551 1551 1551 1551 1551 1551 1551 1551 1551 1551 1551 1551 1551 1551 1551 1551 1550 1550 1549 1549 1549 1549 1548 1548 1548 1548 1547 1547 1547 1547 1547 1547 1547 1547 1547 1547 1547 1547 1546 1546 1547 1547 1547 1547 1547
1553 1553 1554 1554 1554 1554 1554 1554 1554 1554 1553 1553 1554 1554 1554 1554 1554 1554 1554 1554 1554 1554 1554 1554 1554 1554 1554 1554 1553 1553 1553 1553 1553 1553 1553 1553 1553 1553 1553 1553 1553 1553 1552 1551 1551 1550 1550 1549 1549 1549 1548 1549 1549 1549 1549 1550 1550 1550 1550 1550 1550 1550 1550 1550 1550 1550 1550 1550 1549 1549 1549 1549 1549 1549 1549 1549 1548 1548 1547 1547 1547 1546 1546 1546 1546 1546 1545 1545 1545 1545 1545 1545 1545 1545 1545 1545 1545 1545 1545 1545 1545 1545 1545
1551 1552 1552 1552 1552 1553 1553 1552 1552 1552 1552 1552 1552 1553 1553 1553 1553 1553 1553 1553 1553 1553 1553 1553 1553 1552 1552 1552 1552 1552 1552 1551 1552 1552 1552 1552 1551 1551 1551 1551 1551 1552 1552 1551 1550 1550 1549 1549 1548 1548 1547 1547 1547 1548 1548 1548 1549 1549 1549 1549 1549 1549 1549 1549 1549 1549 1549 1548 1548 1548 1548 1548 1548 1547 1547 1547 1546 1546 1545 1545 1545 1545 1544 1544 1544 1544 1544 1544 1544 1544 1544 1544 1543 1543 1543 1542 1542 1542 1542 1542 1542 1543 1543
1550 1550 1550 1550 1551 1551 1551 1550 1551 1551 1551 1551 1551 1551 1551 1551 1551 1551 1551 1552 1552 1552 1552 1551 1551 1551 1551 1551 1551 1550 1550 1550 1550 1551 1551 1550 1550 1550 1549 1549 1549 1549 1550 1549 1549 1549 1549 1548 1548 1547 1546 1545 1545 1546 1546 1547 1547 1548 1548 1548 1548 1548 1548 1548 1548 1547 1547 1547 1547 1546 1546 1546 1546 1546 1545 1545 1545 1544 1544 1544 1543 1543 1543 1542 1542 1542 1542 1542 1541 1541 1542 1542 1541 1541 1540 1540 1540 1539 1539 1539 1539 1540 1541
1548 1548 1549 1549 1549 1549 1549 1549 1549 1549 1549 1549 1549 1549 1549 1549 1549 1549 1550 1550 1550 1550 1550 1550 1549 1549 1549 1549 1549 1549 1549 1549 1549 1549 1549 1549 1549 1548 1548 1548 1548 1548 1548 1548 1548 1548 1548 1548 1547 1546 1546 1544 1544 1543 1544 1545 1545 1546 1546 1547 1547 1547 1547 1547 1546 1546 1546 1545 1545 1545 1544 1544 1544 1544 1544 1543 1543 1543 1542 1542 1541 1541 1541 1540 1540 1540 1540 1539 1539 1539 1539 1539 1539 1539 1538 1538 1538 1538 1537 1537 1537 1537 1538
1546 1546 1547 1547 1547 1547 1546 1546 1546 1547 1547 1547 1547 1548 1548 1548 1548 1548 1548 1548 1549 1549 1549 1549 1549 1548 1548 1548 1548 1548 1547 1548 1548 1549 1548 1548 1548 1547 1547 1546 1547 1547 1547 1547 1547 1547 1547 1546 1546 1545 1545 1544 1543 1541 1541 1542 1544 1544 1544 1545 1545 1545 1545 1545 1545 1545 1544 1544 1544 1543 1543 1543 1542 1542 1542 1541 1541 1540 1540 1540 1539 1539 1539 1539 1539 1538 1538 1538 1538 1537 1537 1537 1537 1537 1536 1536 1535 1535 1535 1535 1535 1535 1535
1544 1544 1545 1545 1545 1545 1544 1544 1544 1545 1545 1545 1545 1546 1546 1546 1546 1547 1547 1547 1547 1546 1546 1547 1547 1547 1547 1547 1546 1546 1546 1546 1547 1547 1547 1547 1547 1546 1546 1546 1546 1546 1546 1546 1546 1546 1545 1545 1545 1544 1544 1544 1543 1541 1539 1539 1540 1542 1542 1543 1543 1543 1543 1544 1544 1543 1543 1543 1542 1542 1541 1541 1541 1540 1540 1539 1539 1539 1538 1538 1538 1537 1537 1537 1537 1536 1536 1536 1536 1535 1535 1535 1535 1535 1534 1534 1533 1533 1533 1533 1533 1533 1533